Weather WX

World > North America > United States > Minnesota

Taunton, Minnesota Regional Weather

Lat: 44.59N, Lon: 96.06W
Wx Zone: MNZ072
Warning FLW WEATHER ALERT - (More Info. Click Here) Warning
Feedback

Taunton, MN Regional Weather

Expires:201906171100;;207883
ASUS43 KFSD 171010
RWRFSD

WEATHER ROUNDUP FOR SE SOUTH DAKOTA/SW MINNESOTA/NW IOWA
NATIONAL WEATHER SERVICE SIOUX FALLS SD
500 AM CDT MON JUN 17 2019

NOTE: "FAIR" INDICATES FEW OR NO CLOUDS BELOW 12,000 FEET WITH NO
SIGNIFICANT WEATHER AND OR OBSTRUCTIONS TO VISIBILITY.



MNZ071-072-080-081-089-090-097-098-171100-
SOUTHWEST MINNESOTA
  
CITY           SKY/WX    TMP DP  RH WIND       PRES   REMARKS
FAIRMONT       PTCLDY    61  60  97 S5        29.96R                  
JACKSON        MOCLDY    61  59  94 SE3       29.97R                  
LUVERNE        CLOUDY    63  54  72 NE3       29.96S                  
MARSHALL       MOCLDY    57  54  89 NW6       29.96S                  
MONTEVIDEO     CLEAR     55  52  88 N5        29.96                   
PIPESTONE      MOCLDY    63  55  77 CALM      29.96S                  
REDWOOD FALLS  FOG       60  58  92 CALM      29.94S VSB 3/4          
TRACY          CLEAR     58  55  88 NW8       29.96R                  
WINDOM         CLEAR     59  57  94 CALM      29.95R FOG              
WORTHINGTON    CLOUDY    61  56  83 N3        29.97R                  
$$


SKY/WX - Weather  TMP - Temperature  DP - Dew Point  RH - Relative Humidity
WIND - Wind Direction/Speed PRES - Barometric Pressure VSB - Visibility
WCI - Wind Chill Index E13G22 Wind - East Wind 13 mph/Gusts of 22 mph